Miscellaneous Local Product
Issued by NWS Hastings, NE

Home | Current Version | Previous Version | Graphics & Text | Print | Product List | Glossary On
Versions: 1 2 3 4 5 6 7 8 9 10 11 12 13 14 15 16 17 18 19 20 21 22 23 24 25 26 27 28 29 30 31 32 33 34 35 36 37 38 39 40 41 42 43 44 45 46 47 48 49 50
000
AXUS43 KGID 221602
MISGRI

GID CWA HOURLY WEATHER ROUNDUP
NATIONAL WEATHER SERVICE HASTINGS NE
1100 AM CDT THU JUN 22 2017

NOTE: "FAIR" INDICATES FEW OR NO CLOUDS BELOW 12,000 FEET WITH NO
SIGNIFICANT WEATHER AND/OR OBSTRUCTIONS TO VISIBILITY.

...SOUTH CENTRAL NEBRASKA...

CITY           SKY/WX    TMP DP  RH WIND       PRES   REMARKS
GRAND ISLAND   CLOUDY    82  63  52 S9        29.64R
HASTINGS       SUNNY     83  62  49 S14G21    29.64F
KEARNEY        SUNNY     84  61  45 SW10G16   29.65R
ORD            SUNNY     83  59  44 N7        29.64R
YORK           SUNNY     84  64  51 S12       29.64S
AURORA         MOSUNNY   84  61  44 SW13      29.63S
LEXINGTON      MOSUNNY   84  64  49 NW7       29.66R
HOLDREGE       SUNNY     80  61  51 S7        29.65F
HEBRON         SUNNY     85  64  49 S14       29.64F

...NEBRASKA PANHANDLE...

CITY           SKY/WX    TMP DP  RH WIND       PRES   REMARKS
CHADRON        SUNNY     72  50  45 NE10G17   29.91R
ALLIANCE       SUNNY     69  53  56 N18       29.90R
SCOTTSBLUFF    SUNNY     77  50  38 N15G22    29.91R
SIDNEY         SUNNY     76  53  44 N24G35    29.88S

...WESTERN AND NORTH CENTRAL NEBRASKA...

CITY           SKY/WX    TMP DP  RH WIND       PRES   REMARKS
VALENTINE      CLOUDY    72  54  53 NE18G26   29.82R
AINSWORTH      PTSUNNY   73  57  57 NE17G28   29.78R
ONEILL         CLOUDY    76  62  61 NE23G32   29.72R
BROKEN BOW     SUNNY     84  61  45 N13       29.66R
IMPERIAL       SUNNY     86  50  28 N28G37    29.76R
NORTH PLATTE   CLOUDY    87  53  31 NW17G30   29.70R
MCCOOK         SUNNY     94  51  23 NW17      29.66R HX  91

...EASTERN NEBRASKA...

CITY           SKY/WX    TMP DP  RH WIND       PRES   REMARKS
NORFOLK        CLOUDY    82  61  48 CALM      29.63R
SO SIOUX CITY  SUNNY     86  65  49 NE9       29.64S
TEKAMAH        SUNNY     84  61  45 S5        29.64R
COLUMBUS       SUNNY     87  65  47 S9        29.62F
ALBION         MOSUNNY   82  60  47 SW10      29.63F
OMAHA EPPLEY   MOSUNNY   82  63  52 S21       29.65F
OFFUTT AFB     SUNNY     81  64  55 S16       29.66R
MILLARD        SUNNY     83  66  56 S12       29.65F
LINCOLN        SUNNY     83  66  56 S13       29.64F
NEBRASKA CITY  CLOUDY    82  66  59 SW17G25   29.67S
BEATRICE       SUNNY     82  66  59 S16G23    29.66F
FALLS CITY     CLOUDY    79  66  64 S12       29.69F

...NORTHERN KANSAS...

CITY           SKY/WX    TMP DP  RH WIND       PRES   REMARKS
GOODLAND       SUNNY     91  53  27 NW14      29.76R
HILL CITY      SUNNY     87  63  44 S10       29.66F
NORTON         SUNNY     93  54  26 S5        29.64  HX  91
PHILLIPSBURG   SUNNY     90  59  35 S13       29.64S
SMITH CENTER   SUNNY     84  63  48 S16G22    29.65F
HAYS           SUNNY     86  62  44 S17       29.68F
RUSSELL        SUNNY     87  59  38 S21       29.67F
CONCORDIA      SUNNY     84  65  52 S18       29.66F
SALINA         SUNNY     89  62  40 S23G29    29.69F
TOPEKA         MOSUNNY   82  70  66 S15       29.74S



USA.gov is the U.S. government's official web portal to all federal, state and local government web resources and services.